Location: Deep South Regional Star Gaze
(30.9929°N, 90.9586°W)
Time: 14:35:08
(UTC-05:00)

Daily predictions for brighter satellites

Satellite Brightness Start Highest point End
(mag) Time Altitude Azimuth Time Altitude Azimuth Time Altitude Azimuth
FengYun 1-2 T 4.2 20:17:08 10° SSE 20:22:37 74° ENE 20:28:06 10° N
Delta 168 4.2 20:22:36 10° SSW 20:25:11 19° SSE 20:28:19 10° ESE
PSLV R/B 4.3 20:26:37 10° SSW 20:29:39 28° SE 20:32:44 10° E
CZ-4 DEB 3.4 20:30:10 10° SE 20:33:11 38° ENE 20:36:13 10° N
H-2A R/B 3.6 20:31:38 10° ESE 20:34:37 19° ENE 20:37:39 10° NNE
BREEZE-M R/B 2.8 20:32:51 10° NW 20:35:53 82° NE 20:41:27 10° SE
Tiangong 1 2.5 20:33:31 10° WNW 20:36:21 30° SW 20:39:09 10° SSE
CZ-2C R/B 2.5 20:36:00 11° ESE 20:37:10 15° ENE 20:38:35 10° NE
Cosmos 2333 Rocket 2.8 20:32:47 10° SSW 20:38:21 62° WNW 20:43:57 10° NNE
Meteor 2-15 Rocket 4.4 20:32:34 10° S 20:38:38 86° E 20:44:43 10° N
Resurs 01 Rocket 3.6 20:35:31 10° SSW 20:39:24 30° W 20:43:19 10° NW
ATLAS 3B CENTAUR R/B 3.6 20:38:47 10° WSW 20:42:03 23° S 20:48:21 10° SE
Cosmos 1242 Rocket 4.4 20:45:34 10° SSW 20:48:58 35° W 20:52:26 10° NNW
Cosmos 1975 3.4 20:45:09 10° NNW 20:49:06 60° W 20:53:01 10° S
H-2A R/B 2.8 20:45:16 10° SSE 20:49:09 68° ENE 20:53:05 10° N
Cosmos 1725 Rocket 4.4 20:44:29 10° NNW 20:50:43 68° W 20:56:52 10° S
Cosmos 2098 Rocket 2.6 20:49:23 10° N 20:52:50 77° E 20:57:07 10° S
ATLAS CENTAUR R/B 2.9 20:49:27 10° SW 20:54:10 50° WNW 20:59:05 10° NNE
USA 186 1.5 20:51:34 10° S 20:54:37 84° WSW 20:57:30 10° NNW
Cosmos 158 Rocket 4.1 20:49:42 10° SSW 20:54:41 76° WNW 20:59:50 10° NNE
Cosmos 1844 3.8 20:48:57 10° NNW 20:54:45 82° WSW 21:00:31 10° SSE
Cosmos 1844 Rocket 3.3 20:50:18 10° NNW 20:55:49 56° WSW 21:01:18 10° S
SeaSat 1 4.0 20:53:10 12° E 20:56:12 21° ENE 20:59:48 10° N
Cosmos 2251 Rocket 3.6 20:55:54 10° SSW 21:01:11 83° WNW 21:06:32 10° NNE
FENGYUN 3A 3.7 20:57:17 10° SSE 21:02:38 85° WSW 21:08:02 10° NNW
Cosmos 1025 Rocket 3.2 20:58:30 10° S 21:02:53 75° W 21:07:16 10° N
Cosmos 1892 Rocket 3.5 20:58:30 10° S 21:02:53 70° E 21:07:19 10° N
Hubble Space Telescope 2.2 20:59:40 10° WSW 21:03:07 25° SSW 21:05:15 17° SSE
RESURS DK-1 4.4 21:01:57 10° NW 21:05:22 25° WSW 21:08:45 10° SSW
Cosmos 2228 4.3 21:02:58 10° NNE 21:06:32 24° ENE 21:07:58 20° ESE
Intelsat 5-2 Rocket 4.4 21:06:32 10° SSW 21:07:07 11° S 21:07:08 11° S
Atlas Centaur 2 3.2 21:04:55 10° SW 21:12:09 49° SSE 21:20:16 10° E
ALOS 2.8 21:07:41 10° S 21:12:16 58° W 21:16:52 10° NNW
BREEZE-M DEB (TANK) 4.3 21:11:42 10° N 21:12:33 11° NE 21:13:12 10° NE
OTV 4 0.4 21:11:41 10° WNW 21:14:39 70° SSW 21:15:32 40° SE
COSMOS 2455 3.8 21:13:20 21° SE 21:15:25 25° ESE 21:20:11 10° NE
ATLAS 3B R/B 4.3 21:18:09 16° E 21:18:09 16° E 21:21:55 10° ENE
Cosmos 2237 Rocket 4.3 21:12:42 10° SW 21:17:34 30° WNW 21:22:28 10° N
Meteor 2-17 Rocket 4.4 21:11:31 10° N 21:17:40 90° E 21:23:42 11° S
Nimbus 7 Rocket 4.3 21:12:59 10° NNE 21:18:55 70° ESE 21:24:47 10° S
Envisat 3.6 21:16:48 24° SE 21:19:17 39° ENE 21:23:58 10° N
ERS-1 Rocket 2.9 21:16:52 16° SSE 21:20:50 86° ENE 21:25:52 10° NNW
Cosmos 1939 Rocket 3.2 21:19:32 29° SE 21:21:20 49° ENE 21:25:21 10° N
Cosmos 1110 Rocket 4.0 21:20:39 10° N 21:25:55 67° ENE 21:28:42 28° SSE
Cosmos 2285 Rocket 4.3 21:20:12 10° N 21:26:21 52° ENE 21:29:39 27° SE
PSLV R/B 4.1 21:30:19 32° ENE 21:30:19 32° ENE 21:32:52 10° N
Cosmos 2278 Rocket 2.7 21:24:45 10° NNW 21:30:19 59° WSW 21:34:39 17° S
GEOS 3 Rocket 4.4 21:27:10 16° S 21:31:06 47° WSW 21:36:09 10° NW
USA 234 4.3 21:27:51 17° E 21:32:05 34° NE 21:37:52 10° NNW
Cosmos 1726 Rocket 3.8 21:29:52 10° NNW 21:34:17 69° W 21:37:06 21° S
Lacrosse 5 rocket 4.4 21:35:36 10° W 21:38:03 16° NW 21:40:34 10° N
Cosmos 1464 Rocket 3.9 21:35:20 10° N 21:41:29 83° E 21:45:12 26° S
Cosmos 2058 Rocket 3.1 21:38:24 10° N 21:42:46 74° W 21:44:45 31° S
SL-16 R/B 3.4 21:38:24 10° SW 21:43:43 42° WNW 21:49:05 10° N
Aureole 2 Rocket 3.3 21:42:11 10° SSW 21:46:16 59° WNW 21:50:03 10° N
Cosmos 1602 Rocket 3.5 21:45:02 39° S 21:46:39 77° E 21:51:08 10° N
Okean 2 4.4 21:43:00 10° SSW 21:47:00 45° W 21:51:02 10° N
Cosmos 1666 2.6 21:45:00 10° N 21:48:54 76° E 21:49:17 68° SE
ARGOS 4.2 21:48:12 27° E 21:49:01 29° ENE 21:53:36 10° NNE
H-2A R/B 4.1 21:50:30 12° ENE 21:50:30 12° ENE 21:52:14 10° NE
SPOT 1/Viking Rocket 3.9 21:57:45 42° E 21:58:24 44° ENE 22:03:18 10° N
Cosmos 2034 Rocket 3.9 21:52:21 10° N 21:58:45 85° E 22:01:31 37° S
UNK 4.3 21:54:48 10° N 22:00:14 79° WNW 22:04:38 18° SSW
Cosmos 1812 Rocket 4.0 21:58:23 10° N 22:02:13 46° ENE 22:02:13 46° ENE
Cosmos 1461 4.2 22:00:18 10° N 22:03:39 28° NE 22:03:39 28° NE
H-2A R/B 3.8 22:08:27 18° SW 22:10:25 26° W 22:13:59 10° NW
MetOp-B 4.0 22:10:02 57° SSE 22:11:11 87° ENE 22:16:33 10° NNW
Cosmos 1603 3.9 22:06:44 10° SSW 22:12:19 67° WNW 22:17:54 10° NNE
DEBRIS 4.3 22:13:02 10° NW 22:15:02 24° NNW 22:15:02 24° NNW
CZ-4 R/B 3.8 22:13:01 10° NNE 22:18:01 85° ESE 22:18:29 74° S
SPOT 5 3.2 22:17:32 46° SW 22:18:14 50° W 22:22:30 10° NNW
Geosat 3.9 22:13:55 10° NNE 22:18:58 90° ESE 22:19:56 60° SSW
Milstar 3 Cent rocket 2.9 22:14:39 10° W 22:19:51 35° SSW 22:19:51 35° SSW
Cosmos 1302 Rocket 4.4 22:26:10 10° NNW 22:31:16 55° WSW 22:31:50 52° SW
SeaSat 1 3.2 22:32:58 40° SW 22:33:25 41° WSW 22:38:05 10° NW
APEX 4.3 22:33:41 10° NNW 22:37:53 53° WSW 22:37:53 53° WSW
Cosmos 1943 3.2 22:39:29 71° NE 22:39:29 71° NE 22:44:37 10° NNE
Meteor 2-12 Rocket 4.3 22:36:03 10° N 22:42:10 80° W 22:42:43 72° SSW
Cosmos 2346 Rocket 4.3 22:41:46 74° SSW 22:42:24 88° W 22:48:36 10° N
Terra 3.0 22:51:59 34° NNE 22:51:59 34° NNE 22:55:01 10° N
COSMOS 2455 4.0 22:56:15 14° SW 23:01:02 39° WNW 23:06:39 10° N
Cosmos 1943 Rocket 4.2 22:58:13 10° NNE 23:01:00 16° NE 23:01:00 16° NE
Atlas Centaur 2 2.9 22:53:41 10° WSW 23:01:55 81° S 23:03:19 66° ESE
Cosmos 407 Rocket 4.4 23:05:15 44° NNE 23:05:15 44° NNE 23:08:47 10° NNE
ATLAS 3B R/B 2.9 23:05:15 51° SW 23:07:26 80° WNW 23:15:05 10° NNE
USA 234 3.5 23:15:11 57° WSW 23:15:11 57° WSW 23:21:15 10° NW
Lacrosse 4 Rocket 4.2 23:26:58 14° N 23:26:58 14° N 23:27:37 10° NNE
H-2A R/B 3.3 23:31:07 36° NW 23:31:07 36° NW 23:34:11 10° NNW
Cosmos 2369 Rocket 3.0 23:24:00 10° NNW 23:28:01 48° NNW 23:28:01 48° NNW
USA 238 DEB 4.4 23:39:27 44° NE 23:39:27 44° NE 23:44:08 10° NE
USA 238 4.5 23:39:36 43° NE 23:39:36 43° NE 23:44:13 10° NE
